• In France
  • List of Countries
  • For 7 days
  • Water Temperature
  • Satellite Maps
  • Weather Map
  • Weather Widgets
  • user-avatar
    Login

    Hourly Weather Córdoba

    Today, 25 September, Tuesday

    Time Temperature Precipitation Wind Pressure Humidity
    00:00 +18°C° 0 mm 1 mps 724 mmHg 51%
    01:00 +16°C° 0 mm 1 mps 724 mmHg 54%
    02:00 +16°C° 0 mm 1 mps 723 mmHg 58%
    03:00 +15°C° 0 mm 1 mps 723 mmHg 60%
    04:00 +15°C° 0 mm 1 mps 723 mmHg 62%
    05:00 +15°C° 0 mm 1 mps 722 mmHg 64%
    06:00 +16°C° 0 mm 1 mps 723 mmHg 61%
    07:00 +18°C° 0 mm 1 mps 723 mmHg 58%
    08:00 +18°C° 0 mm 2 mps 723 mmHg 53%
    09:00 +20°C° 0 mm 2 mps 723 mmHg 49%
    10:00 +23°C° 0 mm 2 mps 723 mmHg 45%
    11:00 +25°C° 0 mm 2 mps 723 mmHg 41%
    12:00 +26°C° 0 mm 3 mps 722 mmHg 41%
    13:00 +27°C° 0 mm 3 mps 722 mmHg 42%
    14:00 +28°C° 0 mm 3 mps 721 mmHg 42%
    15:00 +27°C° 0 mm 4 mps 721 mmHg 46%
    16:00 +27°C° 0 mm 4 mps 720 mmHg 50%
    17:00 +26°C° 0 mm 4 mps 720 mmHg 54%
    18:00 +24°C° 0 mm 3 mps 720 mmHg 63%
    19:00 +21°C° 0 mm 3 mps 720 mmHg 72%
    20:00 +20°C° 0 mm 2 mps 721 mmHg 81%
    21:00 +19°C° 0 mm 2 mps 721 mmHg 84%
    22:00 +19°C° 0 mm 1 mps 721 mmHg 88%
    23:00 +19°C° 0 mm 1 mps 722 mmHg 91%

    Tomorrow, 26 September, Wednesday

    Time Temperature Precipitation Wind Pressure Humidity
    00:00 +18°C° 0 mm 1 mps 721 mmHg 92%
    01:00 +18°C° 0 mm 1 mps 721 mmHg 93%
    02:00 +18°C° 0 mm 1 mps 721 mmHg 94%
    03:00 +18°C° 0 mm 1 mps 721 mmHg 94%
    04:00 +18°C° 0 mm 1 mps 721 mmHg 93%
    05:00 +18°C° 0 mm 1 mps 721 mmHg 92%
    06:00 +18°C° 0 mm 1 mps 721 mmHg 90%
    07:00 +19°C° 0 mm 1 mps 722 mmHg 88%
    08:00 +19°C° 0 mm 1 mps 722 mmHg 87%
    09:00 +19°C° 0 mm 2 mps 722 mmHg 83%
    10:00 +20°C° 0 mm 2 mps 722 mmHg 80%
    11:00 +21°C° 0 mm 2 mps 722 mmHg 76%
    12:00 +23°C° 0 mm 2 mps 722 mmHg 71%
    13:00 +24°C° 0 mm 3 mps 722 mmHg 65%
    14:00 +26°C° 0 mm 3 mps 722 mmHg 60%
    15:00 +25°C° 0.1 mm 4 mps 721 mmHg 64%
    16:00 +23°C° 0.1 mm 4 mps 721 mmHg 68%
    17:00 +22°C° 0.1 mm 4 mps 721 mmHg 73%
    18:00 +21°C° 0.1 mm 4 mps 721 mmHg 78%
    19:00 +20°C° 0.1 mm 4 mps 722 mmHg 83%
    20:00 +19°C° 0.1 mm 3 mps 722 mmHg 89%
    21:00 +19°C° 0.2 mm 3 mps 723 mmHg 90%
    22:00 +19°C° 0.2 mm 2 mps 723 mmHg 91%
    23:00 +18°C° 0.2 mm 2 mps 723 mmHg 92%

    Day after tomorrow, 27 September, Thursday

    Time Temperature Precipitation Wind Pressure Humidity
    00:00 +18°C° 0.2 mm 2 mps 723 mmHg 92%
    01:00 +18°C° 0.2 mm 2 mps 722 mmHg 92%
    02:00 +19°C° 0.2 mm 1 mps 722 mmHg 92%
    03:00 +19°C° 0.1 mm 1 mps 722 mmHg 93%
    04:00 +18°C° 0.1 mm 2 mps 722 mmHg 93%
    05:00 +18°C° 0.1 mm 2 mps 722 mmHg 94%
    06:00 +18°C° 0.1 mm 2 mps 722 mmHg 93%
    07:00 +18°C° 0.1 mm 2 mps 722 mmHg 91%
    08:00 +18°C° 0.1 mm 2 mps 723 mmHg 90%
    09:00 +19°C° 0.1 mm 3 mps 723 mmHg 87%
    10:00 +19°C° 0.1 mm 3 mps 723 mmHg 84%
    11:00 +20°C° 0.1 mm 3 mps 723 mmHg 81%
    12:00 +21°C° 0 mm 3 mps 723 mmHg 75%
    13:00 +24°C° 0 mm 3 mps 722 mmHg 69%
    14:00 +25°C° 0 mm 3 mps 721 mmHg 63%
    15:00 +25°C° 0 mm 4 mps 721 mmHg 65%
    16:00 +23°C° 0 mm 4 mps 721 mmHg 66%
    17:00 +23°C° 0 mm 4 mps 720 mmHg 68%
    18:00 +22°C° 0 mm 4 mps 721 mmHg 74%
    19:00 +21°C° 0 mm 3 mps 721 mmHg 79%
    20:00 +20°C° 0 mm 3 mps 722 mmHg 85%
    21:00 +19°C° 0 mm 3 mps 722 mmHg 87%
    22:00 +19°C° 0 mm 3 mps 722 mmHg 88%
    23:00 +19°C° 0 mm 3 mps 722 mmHg 90%

    28 September, Friday

    Time Temperature Precipitation Wind Pressure Humidity
    00:00 +19°C° 0 mm 3 mps 722 mmHg 90%
    01:00 +18°C° 0 mm 3 mps 721 mmHg 91%
    02:00 +18°C° 0 mm 2 mps 721 mmHg 91%
    03:00 +18°C° 0 mm 2 mps 721 mmHg 91%
    04:00 +18°C° 0 mm 2 mps 720 mmHg 91%
    05:00 +18°C° 0 mm 2 mps 720 mmHg 91%
    06:00 +19°C° 0 mm 2 mps 720 mmHg 89%
    07:00 +19°C° 0 mm 3 mps 721 mmHg 87%
    08:00 +20°C° 0 mm 3 mps 721 mmHg 84%
    09:00 +21°C° 0 mm 3 mps 721 mmHg 78%
    10:00 +23°C° 0 mm 4 mps 721 mmHg 72%
    11:00 +26°C° 0 mm 4 mps 721 mmHg 66%
    12:00 +27°C° 0 mm 5 mps 720 mmHg 61%
    13:00 +28°C° 0 mm 5 mps 720 mmHg 57%
    14:00 +29°C° 0 mm 5 mps 719 mmHg 53%
    15:00 +29°C° 0 mm 5 mps 719 mmHg 56%
    16:00 +28°C° 0 mm 5 mps 718 mmHg 59%
    17:00 +27°C° 0 mm 5 mps 718 mmHg 62%
    18:00 +26°C° 0 mm 4 mps 718 mmHg 69%
    19:00 +25°C° 0 mm 4 mps 718 mmHg 75%
    20:00 +22°C° 0 mm 3 mps 718 mmHg 82%
    21:00 +22°C° 0 mm 3 mps 718 mmHg 84%
    22:00 +21°C° 0 mm 3 mps 718 mmHg 87%
    23:00 +21°C° 0 mm 2 mps 718 mmHg 90%

    29 September, Saturday

    Time Temperature Precipitation Wind Pressure Humidity
    00:00 +21°C° 0 mm 2 mps 717 mmHg 90%
    01:00 +21°C° 0 mm 2 mps 717 mmHg 91%
    02:00 +21°C° 0 mm 2 mps 716 mmHg 92%
    03:00 +21°C° 0.1 mm 3 mps 716 mmHg 92%
    04:00 +21°C° 0.1 mm 3 mps 716 mmHg 93%
    05:00 +21°C° 0.1 mm 3 mps 715 mmHg 93%
    06:00 +23°C° 0 mm 4 mps 716 mmHg 86%
    07:00 +25°C° 0 mm 4 mps 716 mmHg 79%
    08:00 +27°C° 0 mm 4 mps 716 mmHg 72%
    09:00 +29°C° 0 mm 5 mps 716 mmHg 62%
    10:00 +33°C° 0 mm 6 mps 715 mmHg 51%
    11:00 +35°C° 0 mm 6 mps 715 mmHg 41%
    12:00 +38°C° 0 mm 7 mps 715 mmHg 34%
    13:00 +39°C° 0 mm 7 mps 714 mmHg 27%
    14:00 +40°C° 0 mm 7 mps 713 mmHg 21%
    15:00 +40°C° 0 mm 6 mps 713 mmHg 22%
    16:00 +39°C° 0 mm 5 mps 712 mmHg 23%
    17:00 +37°C° 0 mm 4 mps 712 mmHg 24%
    18:00 +35°C° 0 mm 3 mps 712 mmHg 31%
    19:00 +33°C° 0 mm 3 mps 712 mmHg 37%
    20:00 +30°C° 0 mm 3 mps 713 mmHg 44%
    21:00 +29°C° 0.1 mm 3 mps 713 mmHg 44%
    22:00 +29°C° 0.1 mm 3 mps 713 mmHg 45%
    23:00 +29°C° 0.1 mm 3 mps 713 mmHg 45%

    30 September, Sunday

    Time Temperature Precipitation Wind Pressure Humidity
    00:00 +28°C° 0 mm 3 mps 713 mmHg 45%
    01:00 +28°C° 0 mm 3 mps 713 mmHg 46%
    02:00 +27°C° 0 mm 3 mps 713 mmHg 47%
    03:00 +25°C° 0.1 mm 4 mps 714 mmHg 46%
    04:00 +21°C° 0.1 mm 6 mps 715 mmHg 46%
    05:00 +18°C° 0.1 mm 7 mps 715 mmHg 45%
    06:00 +18°C° 0 mm 7 mps 716 mmHg 42%
    07:00 +17°C° 0 mm 8 mps 717 mmHg 38%
    08:00 +17°C° 0 mm 8 mps 718 mmHg 35%
    09:00 +18°C° 0 mm 8 mps 719 mmHg 32%
    10:00 +20°C° 0 mm 8 mps 719 mmHg 29%
    11:00 +22°C° 0 mm 8 mps 720 mmHg 27%
    12:00 +22°C° 0 mm 7 mps 720 mmHg 26%
    13:00 +22°C° 0 mm 7 mps 719 mmHg 26%
    14:00 +23°C° 0 mm 7 mps 719 mmHg 25%
    15:00 +22°C° 0 mm 7 mps 719 mmHg 28%
    16:00 +21°C° 0 mm 6 mps 719 mmHg 30%
    17:00 +21°C° 0 mm 6 mps 719 mmHg 32%
    18:00 +19°C° 0 mm 5 mps 720 mmHg 35%
    19:00 +17°C° 0 mm 5 mps 721 mmHg 37%
    20:00 +15°C° 0 mm 4 mps 722 mmHg 40%
    21:00 +14°C° 0 mm 4 mps 722 mmHg 42%
    22:00 +14°C° 0 mm 4 mps 722 mmHg 43%
    23:00 +13°C° 0 mm 3 mps 722 mmHg 45%
    Show more